Time,TemperatureF,DewpointF,PressureIn,WindDirection,WindDirectionDegrees,WindSpeedMPH,WindSpeedGustMPH,Humidity,HourlyPrecipIn,Conditions,Clouds,dailyrainin,SoftwareType,DateUTC
2013-02-26 00:04:00,26.6,19.7,30.20,SW,228,1.0,2.0,75,0.00,,,-99.99,Weather View 32 v70,2013-02-26 05:04:00,
2013-02-26 00:09:00,26.6,19.4,30.20,SW,228,0.0,2.0,74,0.00,,,-99.99,Weather View 32 v70,2013-02-26 05:09:00,
2013-02-26 00:14:00,26.7,19.5,30.20,SW,228,2.0,3.0,74,0.00,,,-99.99,Weather View 32 v70,2013-02-26 05:14:00,
2013-02-26 00:19:00,26.8,19.6,30.20,SW,228,0.0,3.0,74,0.00,,,-99.99,Weather View 32 v70,2013-02-26 05:19:00,
2013-02-26 00:24:00,26.7,19.5,30.21,SW,228,0.0,3.0,74,0.00,,,-99.99,Weather View 32 v70,2013-02-26 05:24:00,
2013-02-26 00:29:00,26.7,19.2,30.21,SW,228,0.0,3.0,73,0.00,,,-99.99,Weather View 32 v70,2013-02-26 05:29:00,
2013-02-26 00:39:00,26.6,19.1,30.21,SW,228,0.0,3.0,73,0.00,,,-99.99,Weather View 32 v70,2013-02-26 05:39:00,
2013-02-26 00:44:00,26.4,18.9,30.22,SW,228,0.0,3.0,73,0.00,,,-99.99,Weather View 32 v70,2013-02-26 05:44:00,
2013-02-26 00:49:00,26.0,18.5,30.22,SW,228,0.0,3.0,73,0.00,,,-99.99,Weather View 32 v70,2013-02-26 05:49:00,
2013-02-26 00:54:00,25.9,18.8,30.22,SW,228,1.0,3.0,74,0.00,,,-99.99,Weather View 32 v70,2013-02-26 05:54:00,
2013-02-26 01:04:00,25.6,18.8,30.22,SW,228,0.0,3.0,75,0.00,,,-99.99,Weather View 32 v70,2013-02-26 06:04:00,
2013-02-26 01:09:00,25.8,19.0,30.22,SW,228,0.0,3.0,75,0.00,,,-99.99,Weather View 32 v70,2013-02-26 06:09:00,
2013-02-26 01:14:00,25.8,19.0,30.22,SW,228,0.0,3.0,75,0.00,,,-99.99,Weather View 32 v70,2013-02-26 06:14:00,
2013-02-26 01:19:00,25.8,18.7,30.23,SW,228,0.0,2.0,74,0.00,,,-99.99,Weather View 32 v70,2013-02-26 06:19:00,
2013-02-26 01:24:00,25.8,19.0,30.22,SW,228,0.0,2.0,75,0.00,,,-99.99,Weather View 32 v70,2013-02-26 06:24:00,
2013-02-26 01:34:00,25.5,18.7,30.23,SW,228,0.0,2.0,75,0.00,,,-99.99,Weather View 32 v70,2013-02-26 06:34:00,
2013-02-26 01:39:00,25.4,18.6,30.22,SW,228,0.0,2.0,75,0.00,,,-99.99,Weather View 32 v70,2013-02-26 06:39:00,
2013-02-26 01:44:00,25.5,19.0,30.22,SW,228,0.0,2.0,76,0.00,,,-99.99,Weather View 32 v70,2013-02-26 06:44:00,
2013-02-26 01:54:00,25.1,18.3,30.22,SW,228,0.0,2.0,75,0.00,,,-99.99,Weather View 32 v70,2013-02-26 06:54:00,
2013-02-26 01:59:00,25.0,18.2,30.21,SW,228,0.0,2.0,75,0.00,,,-99.99,Weather View 32 v70,2013-02-26 06:59:00,
2013-02-26 02:04:00,25.1,18.6,30.21,SW,228,0.0,2.0,76,0.00,,,-99.99,Weather View 32 v70,2013-02-26 07:04:00,
2013-02-26 02:09:00,25.1,18.6,30.21,SW,228,0.0,2.0,76,0.00,,,-99.99,Weather View 32 v70,2013-02-26 07:09:00,
2013-02-26 02:14:00,25.1,18.3,30.21,SW,228,1.0,2.0,75,0.00,,,-99.99,Weather View 32 v70,2013-02-26 07:14:00,
2013-02-26 02:24:00,25.1,18.6,30.20,ENE,60,2.0,4.0,76,0.00,,,-99.99,Weather View 32 v70,2013-02-26 07:24:00,
2013-02-26 02:29:00,25.3,18.8,30.21,ENE,60,0.0,4.0,76,0.00,,,-99.99,Weather View 32 v70,2013-02-26 07:29:00,
2013-02-26 02:34:00,25.3,18.5,30.20,ENE,60,2.0,4.0,75,0.00,,,-99.99,Weather View 32 v70,2013-02-26 07:34:00,
2013-02-26 02:39:00,25.3,18.8,30.21,ENE,60,2.0,4.0,76,0.00,,,-99.99,Weather View 32 v70,2013-02-26 07:39:00,
2013-02-26 02:49:00,25.5,18.7,30.20,ENE,60,1.0,4.0,75,0.00,,,-99.99,Weather View 32 v70,2013-02-26 07:49:00,
2013-02-26 02:54:00,25.5,19.0,30.19,ENE,60,2.0,4.0,76,0.00,,,-99.99,Weather View 32 v70,2013-02-26 07:54:00,
2013-02-26 02:59:00,25.4,18.6,30.19,ENE,60,3.0,4.0,75,0.00,,,-99.99,Weather View 32 v70,2013-02-26 07:59:00,
2013-02-26 03:04:00,25.5,19.0,30.19,ENE,60,2.0,4.0,76,0.00,,,-99.99,Weather View 32 v70,2013-02-26 08:04:00,
2013-02-26 03:14:00,25.5,18.7,30.19,ENE,60,3.0,5.0,75,0.00,,,-99.99,Weather View 32 v70,2013-02-26 08:14:00,
2013-02-26 03:19:00,25.5,18.7,30.19,ENE,60,2.0,5.0,75,0.00,,,-99.99,Weather View 32 v70,2013-02-26 08:19:00,
2013-02-26 03:27:00,25.4,18.6,30.19,ENE,60,1.0,5.0,75,0.00,,,-99.99,Weather View 32 v70,2013-02-26 08:27:00,
2013-02-26 03:34:00,25.4,18.6,30.19,ENE,60,1.0,5.0,75,0.00,,,-99.99,Weather View 32 v70,2013-02-26 08:34:00,
2013-02-26 03:44:00,25.3,18.5,30.19,ENE,60,1.0,5.0,75,0.00,,,-99.99,Weather View 32 v70,2013-02-26 08:44:00,
2013-02-26 03:54:00,24.9,18.1,30.18,ENE,60,2.0,5.0,75,0.00,,,-99.99,Weather View 32 v70,2013-02-26 08:54:00,
2013-02-26 03:59:00,24.9,18.1,30.18,ENE,60,1.0,5.0,75,0.00,,,-99.99,Weather View 32 v70,2013-02-26 08:59:00,
2013-02-26 04:04:00,24.8,18.3,30.18,ENE,60,0.0,5.0,76,0.00,,,-99.99,Weather View 32 v70,2013-02-26 09:04:00,
2013-02-26 04:09:00,24.6,18.1,30.18,ENE,60,1.0,5.0,76,0.00,,,-99.99,Weather View 32 v70,2013-02-26 09:09:00,
2013-02-26 04:19:00,24.7,18.2,30.18,ENE,60,0.0,5.0,76,0.00,,,-99.99,Weather View 32 v70,2013-02-26 09:19:00,
2013-02-26 04:24:00,24.8,18.6,30.18,ENE,60,0.0,5.0,77,0.00,,,-99.99,Weather View 32 v70,2013-02-26 09:24:00,
2013-02-26 04:29:00,24.7,18.2,30.18,ENE,60,1.0,5.0,76,0.00,,,-99.99,Weather View 32 v70,2013-02-26 09:29:00,
2013-02-26 04:34:00,24.9,18.7,30.18,ENE,60,1.0,5.0,77,0.00,,,-99.99,Weather View 32 v70,2013-02-26 09:34:00,
2013-02-26 04:39:00,25.0,18.8,30.18,ENE,60,0.0,5.0,77,0.00,,,-99.99,Weather View 32 v70,2013-02-26 09:39:00,
2013-02-26 04:49:00,25.0,18.8,30.18,ENE,60,0.0,5.0,77,0.00,,,-99.99,Weather View 32 v70,2013-02-26 09:49:00,
2013-02-26 04:54:00,24.8,18.6,30.19,ENE,60,0.0,5.0,77,0.00,,,-99.99,Weather View 32 v70,2013-02-26 09:54:00,
2013-02-26 04:59:00,24.8,18.3,30.19,ENE,60,0.0,5.0,76,0.00,,,-99.99,Weather View 32 v70,2013-02-26 09:59:00,
2013-02-26 05:04:00,24.6,18.4,30.18,ENE,60,1.0,2.0,77,0.00,,,-99.99,Weather View 32 v70,2013-02-26 10:04:00,
2013-02-26 05:09:00,24.5,18.0,30.18,ENE,60,0.0,2.0,76,0.00,,,-99.99,Weather View 32 v70,2013-02-26 10:09:00,
2013-02-26 05:19:00,24.3,17.8,30.18,ENE,60,0.0,2.0,76,0.00,,,-99.99,Weather View 32 v70,2013-02-26 10:19:00,
2013-02-26 05:24:00,24.2,17.7,30.18,ENE,60,0.0,2.0,76,0.00,,,-99.99,Weather View 32 v70,2013-02-26 10:24:00,
2013-02-26 05:29:00,24.1,17.6,30.18,ENE,60,0.0,2.0,76,0.00,,,-99.99,Weather View 32 v70,2013-02-26 10:29:00,
2013-02-26 05:34:00,24.0,17.5,30.17,ENE,60,0.0,2.0,76,0.00,,,-99.99,Weather View 32 v70,2013-02-26 10:34:00,
2013-02-26 05:39:00,24.0,17.5,30.17,ENE,60,0.0,2.0,76,0.00,,,-99.99,Weather View 32 v70,2013-02-26 10:39:00,
2013-02-26 05:49:00,24.1,17.9,30.17,ENE,60,0.0,2.0,77,0.00,,,-99.99,Weather View 32 v70,2013-02-26 10:49:00,
2013-02-26 05:54:00,24.2,18.0,30.17,ENE,76,2.0,5.0,77,0.00,,,-99.99,Weather View 32 v70,2013-02-26 10:54:00,
2013-02-26 05:59:00,24.4,18.5,30.17,ENE,76,1.0,5.0,78,0.00,,,-99.99,Weather View 32 v70,2013-02-26 10:59:00,
2013-02-26 06:04:00,24.5,18.6,30.16,ENE,76,3.0,5.0,78,0.00,,,-99.99,Weather View 32 v70,2013-02-26 11:04:00,
2013-02-26 06:14:00,24.6,18.4,30.16,ENE,76,1.0,5.0,77,0.00,,,-99.99,Weather View 32 v70,2013-02-26 11:14:00,
2013-02-26 06:19:00,24.6,18.4,30.16,North,0,0.0,5.0,77,0.00,,,-99.99,Weather View 32 v70,2013-02-26 11:19:00,
2013-02-26 06:24:00,24.6,18.4,30.16,ENE,57,1.0,5.0,77,0.00,,,-99.99,Weather View 32 v70,2013-02-26 11:24:00,
2013-02-26 06:29:00,24.6,18.4,30.15,ENE,74,1.0,5.0,77,0.00,,,-99.99,Weather View 32 v70,2013-02-26 11:29:00,
2013-02-26 06:34:00,24.7,18.5,30.14,ENE,73,0.0,5.0,77,0.00,,,-99.99,Weather View 32 v70,2013-02-26 11:34:00,
2013-02-26 06:44:00,24.7,18.5,30.15,ENE,73,2.0,5.0,77,0.00,,,-99.99,Weather View 32 v70,2013-02-26 11:44:00,
2013-02-26 06:49:00,24.7,18.5,30.15,ENE,73,2.0,5.0,77,0.00,,,-99.99,Weather View 32 v70,2013-02-26 11:49:00,
2013-02-26 06:54:00,24.7,18.5,30.15,ENE,73,2.0,5.0,77,0.00,,,-99.99,Weather View 32 v70,2013-02-26 11:54:00,
2013-02-26 07:04:00,24.7,18.5,30.15,ENE,73,2.0,5.0,77,0.00,,,-99.99,Weather View 32 v70,2013-02-26 12:04:00,
2013-02-26 07:09:00,24.8,18.6,30.15,ENE,73,2.0,5.0,77,0.00,,,-99.99,Weather View 32 v70,2013-02-26 12:09:00,
2013-02-26 07:14:00,24.8,18.6,30.15,ENE,73,2.0,5.0,77,0.00,,,-99.99,Weather View 32 v70,2013-02-26 12:14:00,
2013-02-26 07:19:00,25.0,18.8,30.15,ENE,73,4.0,5.0,77,0.00,,,-99.99,Weather View 32 v70,2013-02-26 12:19:00,
2013-02-26 07:24:00,25.2,19.0,30.15,ENE,70,7.0,8.0,77,0.00,,,-99.99,Weather View 32 v70,2013-02-26 12:24:00,
2013-02-26 07:29:00,25.3,19.1,30.14,ENE,66,4.0,11.0,77,0.00,,,-99.99,Weather View 32 v70,2013-02-26 12:29:00,
2013-02-26 07:39:00,25.7,19.5,30.15,ENE,66,3.0,11.0,77,0.00,,,-99.99,Weather View 32 v70,2013-02-26 12:39:00,
2013-02-26 07:44:00,25.8,19.3,30.15,ENE,66,1.0,11.0,76,0.00,,,-99.99,Weather View 32 v70,2013-02-26 12:44:00,
2013-02-26 07:49:00,26.0,19.5,30.15,ENE,66,4.0,11.0,76,0.00,,,-99.99,Weather View 32 v70,2013-02-26 12:49:00,
2013-02-26 07:59:00,26.5,20.0,30.16,ENE,66,4.0,11.0,76,0.00,,,-99.99,Weather View 32 v70,2013-02-26 12:59:00,
2013-02-26 08:09:00,26.9,20.3,30.16,ENE,63,2.0,11.0,76,0.00,,,-99.99,Weather View 32 v70,2013-02-26 13:09:00,
2013-02-26 08:19:00,27.5,20.6,30.16,ENE,73,1.0,11.0,75,0.00,,,-99.99,Weather View 32 v70,2013-02-26 13:19:00,
2013-02-26 08:24:00,27.8,20.9,30.15,ENE,73,1.0,11.0,75,0.00,,,-99.99,Weather View 32 v70,2013-02-26 13:24:00,
2013-02-26 08:30:00,28.1,20.9,30.15,ENE,73,2.0,6.0,74,0.00,,,-99.99,Weather View 32 v70,2013-02-26 13:30:00,
2013-02-26 08:39:00,28.7,21.5,30.15,East,88,0.0,6.0,74,0.00,,,-99.99,Weather View 32 v70,2013-02-26 13:39:00,
2013-02-26 08:44:00,29.2,21.9,30.16,East,86,3.0,6.0,74,0.00,,,-99.99,Weather View 32 v70,2013-02-26 13:44:00,
2013-02-26 08:54:00,30.2,22.6,30.16,ENE,71,0.0,6.0,73,0.01,,,-99.99,Weather View 32 v70,2013-02-26 13:54:00,
2013-02-26 08:59:00,30.5,22.5,30.16,SE,139,1.0,8.0,72,0.01,,,-99.99,Weather View 32 v70,2013-02-26 13:59:00,
2013-02-26 09:09:00,31.1,22.8,30.16,SE,138,6.0,9.0,71,0.01,,,-99.99,Weather View 32 v70,2013-02-26 14:09:00,
2013-02-26 09:14:00,31.4,23.1,30.16,East,79,6.0,11.0,71,0.01,,,-99.99,Weather View 32 v70,2013-02-26 14:14:00,
2013-02-26 09:19:00,31.7,23.0,30.15,ESE,107,8.0,11.0,70,0.01,,,-99.99,Weather View 32 v70,2013-02-26 14:19:00,
2013-02-26 09:24:00,32.1,23.1,30.15,East,85,6.0,12.0,69,0.01,,,-99.99,Weather View 32 v70,2013-02-26 14:24:00,
2013-02-26 09:30:00,32.4,23.0,30.15,SE,138,7.0,13.0,68,0.01,,,-99.99,Weather View 32 v70,2013-02-26 14:30:00,
2013-02-26 09:39:00,33.1,23.3,30.14,ESE,116,5.0,13.0,67,0.01,,,-99.99,Weather View 32 v70,2013-02-26 14:39:00,
2013-02-26 09:44:00,33.4,23.6,30.14,ESE,115,6.0,13.0,67,0.01,,,-99.99,Weather View 32 v70,2013-02-26 14:44:00,
2013-02-26 09:49:00,33.9,23.4,30.13,ESE,118,4.0,13.0,65,0.01,,,-99.99,Weather View 32 v70,2013-02-26 14:49:00,
2013-02-26 09:59:00,34.8,24.2,30.12,East,92,6.0,13.0,65,0.00,,,-99.99,Weather View 32 v70,2013-02-26 14:59:00,
2013-02-26 10:04:00,35.0,24.4,30.12,East,98,6.0,13.0,65,0.00,,,-99.99,Weather View 32 v70,2013-02-26 15:04:00,
2013-02-26 10:09:00,35.2,24.6,30.11,East,99,10.0,18.0,65,0.00,,,-99.99,Weather View 32 v70,2013-02-26 15:09:00,
2013-02-26 10:14:00,35.6,24.6,30.11,East,96,7.0,18.0,64,0.00,,,-99.99,Weather View 32 v70,2013-02-26 15:14:00,
2013-02-26 10:24:00,36.3,24.5,30.11,ENE,71,4.0,18.0,62,0.00,,,-99.99,Weather View 32 v70,2013-02-26 15:24:00,
2013-02-26 10:31:00,36.7,24.9,30.10,East,86,6.0,18.0,62,0.00,,,-99.99,Weather View 32 v70,2013-02-26 15:31:00,
2013-02-26 10:39:00,37.4,24.8,30.10,SE,143,6.0,18.0,60,0.00,,,-99.99,Weather View 32 v70,2013-02-26 15:39:00,
2013-02-26 10:49:00,38.0,24.9,30.10,East,83,8.0,18.0,59,0.00,,,-99.99,Weather View 32 v70,2013-02-26 15:49:00,
2013-02-26 10:54:00,38.3,24.8,30.09,East,96,10.0,18.0,58,0.00,,,-99.99,Weather View 32 v70,2013-02-26 15:54:00,
2013-02-26 10:59:00,38.5,24.6,30.09,ESE,104,4.0,18.0,57,0.00,,,-99.99,Weather View 32 v70,2013-02-26 15:59:00,
2013-02-26 11:09:00,38.9,24.5,30.08,ESE,110,7.0,18.0,56,0.00,,,-99.99,Weather View 32 v70,2013-02-26 16:09:00,
2013-02-26 11:14:00,39.3,24.5,30.08,ENE,60,3.0,17.0,55,0.00,,,-99.99,Weather View 32 v70,2013-02-26 16:14:00,
2013-02-26 11:19:00,39.5,24.2,30.08,East,101,9.0,18.0,54,0.00,,,-99.99,Weather View 32 v70,2013-02-26 16:19:00,
2013-02-26 11:29:00,40.0,24.2,30.08,ENE,76,10.0,20.0,53,0.00,,,-99.99,Weather View 32 v70,2013-02-26 16:29:00,
2013-02-26 11:34:00,40.2,24.9,30.07,East,94,4.0,20.0,54,0.00,,,-99.99,Weather View 32 v70,2013-02-26 16:34:00,
2013-02-26 11:39:00,40.5,24.7,30.06,ESE,110,9.0,20.0,53,0.00,,,-99.99,Weather View 32 v70,2013-02-26 16:39:00,
2013-02-26 11:44:00,40.7,24.9,30.06,ENE,75,6.0,20.0,53,0.00,,,-99.99,Weather View 32 v70,2013-02-26 16:44:00,
2013-02-26 11:49:00,40.9,25.1,30.05,East,80,5.0,20.0,53,0.00,,,-99.99,Weather View 32 v70,2013-02-26 16:49:00,
2013-02-26 11:59:00,41.1,24.3,30.05,East,94,6.0,21.0,51,0.00,,,-99.99,Weather View 32 v70,2013-02-26 16:59:00,
2013-02-26 12:04:00,41.2,24.4,30.05,ESE,110,4.0,21.0,51,0.00,,,-99.99,Weather View 32 v70,2013-02-26 17:04:00,
2013-02-26 12:09:00,41.4,24.6,30.04,ENE,77,7.0,21.0,51,0.00,,,-99.99,Weather View 32 v70,2013-02-26 17:09:00,
2013-02-26 12:19:00,41.6,23.8,30.04,ENE,65,6.0,21.0,49,0.00,,,-99.99,Weather View 32 v70,2013-02-26 17:19:00,
2013-02-26 12:24:00,41.6,24.3,30.04,East,98,10.0,21.0,50,0.00,,,-99.99,Weather View 32 v70,2013-02-26 17:24:00,
2013-02-26 12:29:00,41.7,23.9,30.03,ENE,59,15.0,21.0,49,0.00,,,-99.99,Weather View 32 v70,2013-02-26 17:29:00,
2013-02-26 12:39:00,42.1,24.3,30.03,ENE,66,7.0,21.0,49,0.00,,,-99.99,Weather View 32 v70,2013-02-26 17:39:00,
2013-02-26 12:44:00,42.3,24.0,30.03,East,98,7.0,21.0,48,0.00,,,-99.99,Weather View 32 v70,2013-02-26 17:44:00,
2013-02-26 12:49:00,42.4,24.1,30.03,ENE,67,7.0,21.0,48,0.00,,,-99.99,Weather View 32 v70,2013-02-26 17:49:00,
2013-02-26 12:54:00,42.5,24.2,30.02,ENE,66,4.0,21.0,48,0.00,,,-99.99,Weather View 32 v70,2013-02-26 17:54:00,
2013-02-26 12:59:00,42.7,24.3,30.01,East,80,4.0,21.0,48,0.00,,,-99.99,Weather View 32 v70,2013-02-26 17:59:00,
2013-02-26 13:09:00,42.8,23.9,30.00,ENE,70,9.0,19.0,47,0.00,,,-99.99,Weather View 32 v70,2013-02-26 18:09:00,
2013-02-26 13:14:00,42.9,24.5,30.00,ESE,103,3.0,19.0,48,0.00,,,-99.99,Weather View 32 v70,2013-02-26 18:14:00,
2013-02-26 13:24:00,43.0,23.6,30.00,East,81,6.0,19.0,46,0.00,,,-99.99,Weather View 32 v70,2013-02-26 18:24:00,
2013-02-26 13:29:00,42.9,24.0,29.99,ENE,71,9.0,19.0,47,0.00,,,-99.99,Weather View 32 v70,2013-02-26 18:29:00,
2013-02-26 13:34:00,42.7,23.3,29.98,ENE,70,9.0,18.0,46,0.00,,,-99.99,Weather View 32 v70,2013-02-26 18:34:00,
2013-02-26 13:39:00,42.8,23.9,29.98,ENE,66,6.0,18.0,47,0.00,,,-99.99,Weather View 32 v70,2013-02-26 18:39:00,
2013-02-26 13:44:00,42.7,23.3,29.98,ENE,76,8.0,18.0,46,0.00,,,-99.99,Weather View 32 v70,2013-02-26 18:44:00,
2013-02-26 13:54:00,42.7,23.8,29.98,East,81,9.0,18.0,47,0.00,,,-99.99,Weather View 32 v70,2013-02-26 18:54:00,
2013-02-26 13:59:00,42.7,23.8,29.98,ENE,63,10.0,18.0,47,0.00,,,-99.99,Weather View 32 v70,2013-02-26 18:59:00,
2013-02-26 14:09:00,42.7,23.8,29.97,East,100,4.0,18.0,47,0.00,,,-99.99,Weather View 32 v70,2013-02-26 19:09:00,
2013-02-26 14:14:00,42.8,23.9,29.97,ENE,62,8.0,18.0,47,0.00,,,-99.99,Weather View 32 v70,2013-02-26 19:14:00,
2013-02-26 14:19:00,42.9,24.0,29.96,ENE,63,13.0,18.0,47,0.00,,,-99.99,Weather View 32 v70,2013-02-26 19:19:00,
2013-02-26 14:29:00,43.0,24.1,29.97,East,86,12.0,18.0,47,0.00,,,-99.99,Weather View 32 v70,2013-02-26 19:29:00,
2013-02-26 14:34:00,43.0,24.1,29.97,East,93,7.0,18.0,47,0.00,,,-99.99,Weather View 32 v70,2013-02-26 19:34:00,
2013-02-26 14:39:00,43.0,24.1,29.97,ENE,64,8.0,18.0,47,0.00,,,-99.99,Weather View 32 v70,2013-02-26 19:39:00,
2013-02-26 14:44:00,43.0,24.6,29.97,East,94,4.0,18.0,48,0.00,,,-99.99,Weather View 32 v70,2013-02-26 19:44:00,
2013-02-26 14:54:00,43.1,24.2,29.96,ESE,111,6.0,18.0,47,0.00,,,-99.99,Weather View 32 v70,2013-02-26 19:54:00,
2013-02-26 15:04:00,42.9,24.5,29.96,East,95,6.0,18.0,48,0.00,,,-99.99,Weather View 32 v70,2013-02-26 20:04:00,
2013-02-26 15:14:00,42.8,24.4,29.95,ESE,107,6.0,18.0,48,0.00,,,-99.99,Weather View 32 v70,2013-02-26 20:14:00,
2013-02-26 15:19:00,42.7,24.3,29.94,East,94,6.0,18.0,48,0.00,,,-99.99,Weather View 32 v70,2013-02-26 20:19:00,
2013-02-26 15:24:00,42.6,23.8,29.94,East,96,6.0,17.0,47,0.00,,,-99.99,Weather View 32 v70,2013-02-26 20:24:00,
2013-02-26 15:29:00,42.6,23.8,29.94,ENE,62,11.0,17.0,47,0.00,,,-99.99,Weather View 32 v70,2013-02-26 20:29:00,
2013-02-26 15:39:00,42.4,23.6,29.93,East,90,7.0,16.0,47,0.00,,,-99.99,Weather View 32 v70,2013-02-26 20:39:00,
2013-02-26 15:44:00,42.2,23.9,29.93,ENE,70,5.0,16.0,48,0.00,,,-99.99,Weather View 32 v70,2013-02-26 20:44:00,
2013-02-26 15:49:00,42.2,23.9,29.93,East,81,7.0,16.0,48,0.00,,,-99.99,Weather View 32 v70,2013-02-26 20:49:00,
2013-02-26 15:54:00,42.1,23.8,29.93,East,93,4.0,16.0,48,0.00,,,-99.99,Weather View 32 v70,2013-02-26 20:54:00,
2013-02-26 16:04:00,41.9,23.6,29.92,East,101,3.0,16.0,48,0.00,,,-99.99,Weather View 32 v70,2013-02-26 21:04:00,
2013-02-26 16:09:00,41.9,23.6,29.92,ESE,113,4.0,16.0,48,0.00,,,-99.99,Weather View 32 v70,2013-02-26 21:09:00,
2013-02-26 16:14:00,41.9,23.6,29.91,ENE,78,6.0,16.0,48,0.00,,,-99.99,Weather View 32 v70,2013-02-26 21:14:00,
2013-02-26 16:24:00,41.7,23.4,29.91,ENE,60,12.0,20.0,48,0.00,,,-99.99,Weather View 32 v70,2013-02-26 21:24:00,
2013-02-26 16:29:00,41.7,23.4,29.91,ENE,66,5.0,20.0,48,0.00,,,-99.99,Weather View 32 v70,2013-02-26 21:29:00,
2013-02-26 16:34:00,41.6,23.3,29.90,East,81,6.0,20.0,48,0.00,,,-99.99,Weather View 32 v70,2013-02-26 21:34:00,
2013-02-26 16:44:00,41.5,23.7,29.91,East,93,4.0,20.0,49,0.00,,,-99.99,Weather View 32 v70,2013-02-26 21:44:00,
2013-02-26 16:49:00,41.3,23.6,29.91,East,80,6.0,20.0,49,0.00,,,-99.99,Weather View 32 v70,2013-02-26 21:49:00,
2013-02-26 16:54:00,41.2,23.5,29.90,ENE,68,5.0,20.0,49,0.00,,,-99.99,Weather View 32 v70,2013-02-26 21:54:00,
2013-02-26 16:59:00,41.1,23.4,29.90,ENE,70,8.0,20.0,49,0.00,,,-99.99,Weather View 32 v70,2013-02-26 21:59:00,
2013-02-26 17:09:00,41.1,23.4,29.91,East,88,15.0,20.0,49,0.00,,,-99.99,Weather View 32 v70,2013-02-26 22:09:00,
2013-02-26 17:14:00,41.0,23.3,29.91,East,93,5.0,20.0,49,0.00,,,-99.99,Weather View 32 v70,2013-02-26 22:14:00,
2013-02-26 17:19:00,40.9,23.7,29.91,ENE,70,5.0,20.0,50,0.00,,,-99.99,Weather View 32 v70,2013-02-26 22:19:00,
2013-02-26 17:29:00,40.7,24.9,29.91,ENE,64,7.0,17.0,53,0.00,,,-99.99,Weather View 32 v70,2013-02-26 22:29:00,
2013-02-26 17:34:00,40.5,25.6,29.91,East,96,5.0,17.0,55,0.00,,,-99.99,Weather View 32 v70,2013-02-26 22:34:00,
2013-02-26 17:39:00,40.3,26.3,29.90,ENE,66,5.0,17.0,57,0.01,,,-99.99,Weather View 32 v70,2013-02-26 22:39:00,
2013-02-26 17:44:00,40.0,26.4,29.90,ENE,65,9.0,17.0,58,0.01,,,-99.99,Weather View 32 v70,2013-02-26 22:44:00,
2013-02-26 17:54:00,39.5,27.1,29.90,NE,34,2.0,17.0,61,0.02,,,-99.99,Weather View 32 v70,2013-02-26 22:54:00,
2013-02-26 17:59:00,39.3,27.4,29.90,ENE,70,8.0,17.0,62,0.03,,,-99.99,Weather View 32 v70,2013-02-26 22:59:00,
2013-02-26 18:04:00,39.1,27.9,29.89,ENE,78,5.0,17.0,64,0.04,,,-99.99,Weather View 32 v70,2013-02-26 23:04:00,
2013-02-26 18:14:00,38.6,27.8,29.89,ENE,66,5.0,15.0,65,0.05,,,-99.99,Weather View 32 v70,2013-02-26 23:14:00,
2013-02-26 18:19:00,38.4,28.0,29.88,ENE,58,3.0,15.0,66,0.05,,,-99.99,Weather View 32 v70,2013-02-26 23:19:00,
2013-02-26 18:24:00,38.3,28.3,29.88,ENE,59,3.0,15.0,67,0.06,,,-99.99,Weather View 32 v70,2013-02-26 23:24:00,
2013-02-26 18:29:00,38.0,28.4,29.88,ENE,78,2.0,15.0,68,0.06,,,-99.99,Weather View 32 v70,2013-02-26 23:29:00,
2013-02-26 18:36:00,37.8,28.2,29.87,ENE,63,2.0,15.0,68,0.06,,,-99.99,Weather View 32 v70,2013-02-26 23:36:00,
2013-02-26 18:44:00,37.7,28.8,29.87,NE,55,1.0,15.0,70,0.06,,,-99.99,Weather View 32 v70,2013-02-26 23:44:00,
2013-02-26 18:49:00,37.6,28.7,29.87,ENE,70,5.0,13.0,70,0.05,,,-99.99,Weather View 32 v70,2013-02-26 23:49:00,
2013-02-26 18:59:00,37.5,28.9,29.86,ENE,63,2.0,13.0,71,0.05,,,-99.99,Weather View 32 v70,2013-02-26 23:59:00,
2013-02-26 19:04:00,37.4,29.2,29.86,ENE,73,3.0,12.0,72,0.05,,,-99.99,Weather View 32 v70,2013-02-27 00:04:00,
2013-02-26 19:09:00,37.2,29.3,29.85,ENE,70,2.0,12.0,73,0.06,,,-99.99,Weather View 32 v70,2013-02-27 00:09:00,
2013-02-26 19:14:00,37.1,29.2,29.85,ENE,61,2.0,12.0,73,0.06,,,-99.99,Weather View 32 v70,2013-02-27 00:14:00,
2013-02-26 19:24:00,37.1,29.9,29.85,ENE,77,5.0,12.0,75,0.07,,,-99.99,Weather View 32 v70,2013-02-27 00:24:00,
2013-02-26 19:29:00,37.0,29.8,29.85,East,82,4.0,12.0,75,0.08,,,-99.99,Weather View 32 v70,2013-02-27 00:29:00,
2013-02-26 19:34:00,36.9,30.0,29.84,ENE,64,3.0,12.0,76,0.10,,,-99.99,Weather View 32 v70,2013-02-27 00:34:00,
2013-02-26 19:44:00,36.8,29.9,29.84,ENE,70,8.0,11.0,76,0.12,,,-99.99,Weather View 32 v70,2013-02-27 00:44:00,
2013-02-26 19:49:00,36.8,30.3,29.83,ENE,69,4.0,12.0,77,0.14,,,-99.99,Weather View 32 v70,2013-02-27 00:49:00,
2013-02-26 19:59:00,36.6,30.4,29.83,ENE,68,5.0,12.0,78,0.15,,,-99.99,Weather View 32 v70,2013-02-27 00:59:00,
2013-02-26 20:04:00,36.6,30.4,29.83,East,80,3.0,12.0,78,0.15,,,-99.99,Weather View 32 v70,2013-02-27 01:04:00,
2013-02-26 20:09:00,36.6,30.4,29.84,NNE,19,2.0,12.0,78,0.16,,,-99.99,Weather View 32 v70,2013-02-27 01:09:00,
2013-02-26 20:19:00,36.7,30.8,29.85,ENE,70,5.0,12.0,79,0.16,,,-99.99,Weather View 32 v70,2013-02-27 01:19:00,
2013-02-26 20:24:00,36.8,30.9,29.86,East,83,1.0,12.0,79,0.17,,,-99.99,Weather View 32 v70,2013-02-27 01:24:00,
2013-02-26 20:29:00,36.8,30.9,29.86,East,91,3.0,12.0,79,0.17,,,-99.99,Weather View 32 v70,2013-02-27 01:29:00,
2013-02-26 20:37:00,36.8,30.9,29.86,ENE,70,2.0,12.0,79,0.17,,,-99.99,Weather View 32 v70,2013-02-27 01:37:00,
2013-02-26 20:44:00,36.8,31.2,29.87,East,88,2.0,12.0,80,0.17,,,-99.99,Weather View 32 v70,2013-02-27 01:44:00,
2013-02-26 20:49:00,36.8,31.2,29.86,ENE,72,2.0,12.0,80,0.16,,,-99.99,Weather View 32 v70,2013-02-27 01:49:00,
2013-02-26 20:54:00,36.8,31.2,29.87,ENE,72,3.0,10.0,80,0.16,,,-99.99,Weather View 32 v70,2013-02-27 01:54:00,
2013-02-26 21:04:00,36.7,31.1,29.87,East,80,1.0,8.0,80,0.16,,,-99.99,Weather View 32 v70,2013-02-27 02:04:00,
2013-02-26 21:09:00,36.4,30.8,29.86,ENE,76,2.0,8.0,80,0.16,,,-99.99,Weather View 32 v70,2013-02-27 02:09:00,
2013-02-26 21:15:00,36.2,30.9,29.85,ENE,70,2.0,7.0,81,0.16,,,-99.99,Weather View 32 v70,2013-02-27 02:15:00,
2013-02-26 21:20:00,36.2,30.9,29.84,ENE,74,0.0,7.0,81,0.16,,,-99.99,Weather View 32 v70,2013-02-27 02:20:00,
2013-02-26 21:29:00,35.9,30.6,29.84,ENE,68,0.0,7.0,81,0.18,,,-99.99,Weather View 32 v70,2013-02-27 02:29:00,
2013-02-26 21:37:00,35.9,30.9,29.83,ENE,67,3.0,7.0,82,0.17,,,-99.99,Weather View 32 v70,2013-02-27 02:37:00,
2013-02-26 21:44:00,35.7,30.7,29.82,ENE,72,6.0,10.0,82,0.16,,,-99.99,Weather View 32 v70,2013-02-27 02:44:00,
2013-02-26 21:49:00,35.8,31.1,29.83,ENE,63,3.0,10.0,83,0.16,,,-99.99,Weather View 32 v70,2013-02-27 02:49:00,
2013-02-26 21:54:00,35.8,30.8,29.82,ENE,69,6.0,10.0,82,0.16,,,-99.99,Weather View 32 v70,2013-02-27 02:54:00,
2013-02-26 21:59:00,35.8,30.8,29.81,ENE,70,3.0,10.0,82,0.17,,,-99.99,Weather View 32 v70,2013-02-27 02:59:00,
2013-02-26 22:04:00,35.8,31.1,29.82,ENE,73,5.0,10.0,83,0.19,,,-99.99,Weather View 32 v70,2013-02-27 03:04:00,
2013-02-26 22:09:00,35.9,31.2,29.81,ENE,73,5.0,10.0,83,0.20,,,-99.99,Weather View 32 v70,2013-02-27 03:09:00,
2013-02-26 22:19:00,35.8,31.1,29.79,ENE,62,7.0,12.0,83,0.21,,,-99.99,Weather View 32 v70,2013-02-27 03:19:00,
2013-02-26 22:24:00,35.8,31.4,29.79,East,83,4.0,12.0,84,0.20,,,-99.99,Weather View 32 v70,2013-02-27 03:24:00,
2013-02-26 22:29:00,35.8,31.4,29.79,ENE,65,6.0,12.0,84,0.19,,,-99.99,Weather View 32 v70,2013-02-27 03:29:00,
2013-02-26 22:38:00,35.8,31.4,29.79,ENE,77,3.0,13.0,84,0.18,,,-99.99,Weather View 32 v70,2013-02-27 03:38:00,
2013-02-26 22:44:00,35.8,31.4,29.78,ENE,60,2.0,13.0,84,0.17,,,-99.99,Weather View 32 v70,2013-02-27 03:44:00,
2013-02-26 22:49:00,35.8,31.1,29.77,ENE,66,4.0,13.0,83,0.16,,,-99.99,Weather View 32 v70,2013-02-27 03:49:00,
2013-02-26 22:59:00,35.7,31.3,29.76,NE,39,3.0,13.0,84,0.13,,,-99.99,Weather View 32 v70,2013-02-27 03:59:00,
2013-02-26 23:04:00,35.8,31.4,29.75,ENE,64,7.0,13.0,84,0.12,,,-99.99,Weather View 32 v70,2013-02-27 04:04:00,
2013-02-26 23:09:00,35.7,31.3,29.75,ENE,75,5.0,13.0,84,0.09,,,-99.99,Weather View 32 v70,2013-02-27 04:09:00,
2013-02-26 23:19:00,35.8,31.4,29.74,NE,55,3.0,13.0,84,0.07,,,-99.99,Weather View 32 v70,2013-02-27 04:19:00,
2013-02-26 23:24:00,35.8,31.4,29.73,ENE,63,3.0,18.0,84,0.05,,,-99.99,Weather View 32 v70,2013-02-27 04:24:00,
2013-02-26 23:29:00,35.9,31.5,29.73,ENE,76,8.0,18.0,84,0.05,,,-99.99,Weather View 32 v70,2013-02-27 04:29:00,
2013-02-26 23:34:00,35.9,31.5,29.72,ENE,67,8.0,24.0,84,0.05,,,-99.99,Weather View 32 v70,2013-02-27 04:34:00,
2013-02-26 23:39:00,35.9,31.5,29.71,ENE,65,9.0,24.0,84,0.05,,,-99.99,Weather View 32 v70,2013-02-27 04:39:00,
2013-02-26 23:44:00,35.8,31.4,29.70,NE,45,2.0,24.0,84,0.04,,,-99.99,Weather View 32 v70,2013-02-27 04:44:00,
2013-02-26 23:54:00,35.9,31.5,29.72,East,83,4.0,24.0,84,0.04,,,-99.99,Weather View 32 v70,2013-02-27 04:54:00,
2013-02-26 23:59:00,35.9,31.5,29.72,ESE,111,0.0,24.0,84,0.04,,,-99.99,Weather View 32 v70,2013-02-27 04:59:00,